Location: Culleoka
(33.1312°N, 96.4919°W)
Time: 04:02:32
(UTC+00:00)

H-2A R/B - Pass Details

Date: 10 July 2022
Orbit: 577 x 651 km, 98.5° (Epoch: 07 August)

Event Time Altitude Azimuth Distance (km) Brightness Sun altitude
Rises 03:22:54 0° 359° (N) 2,962 6.2 -18.7°
Reaches altitude 10° 03:25:19 10° 349° (NNW) 2,055 5.5 -19.1°
Maximum altitude 03:29:11 29° 289° (WNW) 1,187 4.1 -19.6°
Drops below altitude 10° 03:33:03 10° 229° (SW) 2,050 4.8 -20.2°
Sets 03:35:28 0° 219° (SW) 2,955 5.5 -20.5°
